Location: Fernhill
(41.0167°S, 175.6333°E)
Time: 10:17:36
(UTC+00:00)

MOS 1 - Pass Details

Date: 08 November 2025
Orbit: 877 x 889 km, 98.9° (Epoch: 12 December)

Event Time Altitude Azimuth Distance (km) Brightness Sun altitude
Rises 09:23:10 0° 164° (SSE) 3,534 7.9 -21.7°
Reaches altitude 10° 09:25:37 10° 161° (SSE) 2,587 7.1 -22.0°
Maximum altitude 09:31:22 66° 78° (ENE) 975 4.2 -22.6°
Enters shadow 09:32:52 48° 18° (NNE) 1,160 4.5 -22.8°
